Location: Brno
(49.2000°N, 16.6333°E)
Time: 11:52:36
(UTC+01:00)

ISS - Visible Passes

Search period start: 20 January 2018 00:00
Search period end: 30 January 2018 00:00
Orbit: 402 x 407 km, 51.6° (Epoch: 20 January)

Date Brightness Start Highest point End Pass type
(mag) Time Alt. Az. Time Alt. Az. Time Alt. Az.
25 Jan -1.3 18:13:06 10° SSE 18:13:26 11° SE 18:13:26 11° SE visible
26 Jan -1.9 18:54:38 10° SSW 18:56:11 22° SSW 18:56:11 22° SSW visible
27 Jan -2.2 18:02:50 10° SSW 18:05:23 21° SE 18:06:11 19° ESE visible
27 Jan -0.7 19:38:16 10° WSW 19:38:51 14° WSW 19:38:51 14° WSW visible
28 Jan -3.4 18:45:56 10° SW 18:48:45 55° SSW 18:48:45 55° SSW visible
29 Jan -3.1 17:53:45 10° SW 17:56:49 39° SSE 17:58:36 20° E visible
29 Jan -1.3 19:29:58 10° W 19:31:15 22° W 19:31:15 22° W visible
